Estación Meteorológica Peña el Pijo (Robertgarden) [ 09/29/20 12:07:21 CEST ]

Fecha Hora Presion(HPa) Temp (°C) Humedad % Rocio (°C) Viento ( m/s) Direccion Lluvia 1Hora(mm) Lluvia 24H(mm) LLuvia Total(mm)
2020-Feb-08 01:09:28 1013.000 - - - - N     39.88
2020-Feb-08 02:10:19 1012.600 - - - - N     39.88
2020-Feb-08 03:10:13 1012.400 - - - - N     39.88
2020-Feb-08 04:10:48 1012.600 - - - - N     39.88
2020-Feb-08 05:09:39 1012.700 - - - - N     39.88
2020-Feb-08 06:10:33 1012.500 - - - - N     39.88
2020-Feb-08 07:09:56 1012.700 - - - - N     39.88
2020-Feb-08 08:09:02 1013.200 - - - - N     39.88
2020-Feb-08 09:09:11 1013.400 - - - - N     39.88
2020-Feb-08 10:09:09 1013.700 - - - - N     39.88
2020-Feb-08 11:09:30 1014.000 - - - - N     39.88
2020-Feb-08 12:09:21 1014.100 - - - - N     39.88
2020-Feb-08 13:08:56 1013.600 - - - - N     39.88
2020-Feb-08 14:09:02 1013.300 - - - - N     39.88
2020-Feb-08 15:09:06 1013.000 - - - - N     39.88
2020-Feb-08 16:09:06 1012.800 - - - - N     39.88
2020-Feb-08 17:09:24 1012.900 - - - - N     39.88
2020-Feb-08 18:09:08 1013.300 - - - - N     39.88
2020-Feb-08 19:09:07 1013.700 - - - - N     39.88
2020-Feb-08 20:09:07 1014.700 - - - - N     39.88
2020-Feb-08 21:09:36 1015.300 - - - - N     39.88
2020-Feb-08 22:09:10 1015.700 - - - - N     39.88
2020-Feb-08 23:09:49 1016.000 - - - - N     39.88

Temperatura Máxima:    Temperatura Mínima:
Presión Máxima:1016.000 Hpa    Presión Mínima:1012.400 Hpa


Volver